KLE YSHL-YSHL

Flight info

Callsign KLE
Flight time 1h 43m
Altitude 4500
Route YSHL DCT PSP DCT YSHL
Aircraft P28A/L-S/EB1

Departure

Time 2026-04-28 10:16
Airport Shellharbour Airport (YSHL)

Arrival

Time 2026-04-28 11:59
Airport Shellharbour Airport (YSHL)
Time Latitude Longitude Altitude Speed Heading
2026-04-28 10:08 -34.55863 150.78891 30 ft 0 kts 352°
2026-04-28 10:10 -34.55859 150.78891 30 ft 0 kts 351°
2026-04-28 10:11 -34.55858 150.78891 30 ft 1 kts 351°
2026-04-28 10:11 -34.55846 150.78862 30 ft 8 kts 261°
2026-04-28 10:11 -34.55890 150.78832 29 ft 11 kts 170°
2026-04-28 10:12 -34.55980 150.78853 30 ft 13 kts 169°
2026-04-28 10:12 -34.56062 150.78871 32 ft 11 kts 169°
2026-04-28 10:12 -34.56132 150.78887 32 ft 10 kts 169°
2026-04-28 10:12 -34.56203 150.78897 32 ft 10 kts 180°
2026-04-28 10:13 -34.56277 150.78898 31 ft 11 kts 173°
2026-04-28 10:13 -34.56355 150.78914 31 ft 12 kts 169°
2026-04-28 10:13 -34.56447 150.78935 31 ft 14 kts 169°
2026-04-28 10:13 -34.56543 150.78957 30 ft 15 kts 169°
2026-04-28 10:14 -34.56650 150.78981 30 ft 15 kts 168°
2026-04-28 10:14 -34.56741 150.78993 31 ft 11 kts 220°
2026-04-28 10:14 -34.56751 150.78912 31 ft 10 kts 299°
2026-04-28 10:14 -34.56729 150.78895 31 ft 0 kts 350°
2026-04-28 10:15 -34.56679 150.78885 32 ft 27 kts 349°
2026-04-28 10:16 -34.56330 150.78807 50 ft 70 kts 349°
2026-04-28 10:16 -34.55802 150.78698 228 ft 79 kts 351°
2026-04-28 10:16 -34.55270 150.78619 485 ft 75 kts 357°
2026-04-28 10:16 -34.54786 150.78567 783 ft 70 kts 355°
2026-04-28 10:17 -34.54306 150.78527 1034 ft 65 kts 359°
2026-04-28 10:17 -34.53855 150.78487 1250 ft 66 kts 359°
2026-04-28 10:17 -34.53374 150.78447 1440 ft 73 kts 356°
2026-04-28 10:17 -34.52905 150.78333 1747 ft 68 kts 347°
2026-04-28 10:18 -34.52439 150.78190 1979 ft 68 kts 352°
2026-04-28 10:18 -34.51962 150.78178 2170 ft 70 kts
2026-04-28 10:18 -34.51463 150.78269 2373 ft 72 kts
2026-04-28 10:18 -34.50981 150.78259 2575 ft 74 kts
2026-04-28 10:19 -34.50480 150.78431 2809 ft 73 kts 12°
2026-04-28 10:19 -34.50003 150.78564 3035 ft 71 kts 11°
2026-04-28 10:19 -34.49544 150.78763 3220 ft 72 kts 17°
2026-04-28 10:19 -34.49079 150.79024 3414 ft 71 kts 16°
2026-04-28 10:20 -34.48601 150.79234 3551 ft 79 kts 17°
2026-04-28 10:20 -34.48106 150.79490 3789 ft 74 kts 19°
2026-04-28 10:20 -34.47616 150.79737 3972 ft 74 kts 10°
2026-04-28 10:20 -34.47098 150.79891 4107 ft 81 kts
2026-04-28 10:21 -34.46554 150.80061 4297 ft 80 kts 11°
2026-04-28 10:21 -34.46018 150.80232 4485 ft 80 kts
2026-04-28 10:21 -34.45429 150.80403 4535 ft 96 kts
2026-04-28 10:21 -34.44778 150.80611 4550 ft 99 kts 12°
2026-04-28 10:22 -34.44105 150.80852 4526 ft 101 kts 15°
2026-04-28 10:22 -34.43435 150.81176 4508 ft 105 kts 21°
2026-04-28 10:22 -34.42777 150.81521 4528 ft 100 kts 12°
2026-04-28 10:22 -34.42103 150.81731 4500 ft 99 kts
2026-04-28 10:23 -34.41413 150.81885 4435 ft 104 kts
2026-04-28 10:23 -34.40719 150.82063 4440 ft 104 kts 10°
2026-04-28 10:23 -34.40014 150.82273 4444 ft 104 kts
2026-04-28 10:23 -34.39314 150.82498 4438 ft 104 kts 13°
2026-04-28 10:24 -34.38625 150.82784 4413 ft 107 kts 19°
2026-04-28 10:24 -34.37924 150.83024 4427 ft 102 kts
2026-04-28 10:24 -34.37221 150.83062 4464 ft 99 kts 355°
2026-04-28 10:24 -34.36552 150.82951 4497 ft 97 kts 346°
2026-04-28 10:25 -34.35855 150.82804 4419 ft 105 kts 349°
2026-04-28 10:25 -34.35142 150.82693 4427 ft 102 kts 349°
2026-04-28 10:25 -34.34440 150.82590 4414 ft 102 kts 351°
2026-04-28 10:25 -34.33725 150.82529 4400 ft 103 kts 355°
2026-04-28 10:26 -34.33009 150.82491 4401 ft 102 kts 353°
2026-04-28 10:26 -34.32300 150.82457 4406 ft 101 kts 353°
2026-04-28 10:26 -34.31605 150.82380 4393 ft 103 kts 349°
2026-04-28 10:26 -34.30898 150.82284 4403 ft 102 kts 349°
2026-04-28 10:27 -34.30203 150.82091 4391 ft 101 kts 342°
2026-04-28 10:27 -34.29512 150.81910 4397 ft 101 kts 346°
2026-04-28 10:27 -34.28818 150.81766 4390 ft 103 kts 347°
2026-04-28 10:27 -34.28121 150.81604 4416 ft 101 kts 347°
2026-04-28 10:28 -34.27424 150.81460 4412 ft 102 kts 348°
2026-04-28 10:28 -34.26732 150.81323 4429 ft 100 kts 346°
2026-04-28 10:28 -34.26048 150.81160 4370 ft 103 kts 345°
2026-04-28 10:29 -34.24884 150.80832 4270 ft 102 kts 344°
2026-04-28 10:29 -34.23980 150.80592 4176 ft 101 kts 344°
2026-04-28 10:29 -34.23299 150.80355 4072 ft 102 kts 341°
2026-04-28 10:29 -34.22619 150.80132 3989 ft 101 kts 346°
2026-04-28 10:30 -34.21922 150.79954 3853 ft 103 kts 346°
2026-04-28 10:30 -34.21457 150.79831 3767 ft 104 kts 346°
2026-04-28 10:30 -34.20757 150.79616 3631 ft 103 kts 345°
2026-04-28 10:30 -34.20076 150.79396 3480 ft 97 kts 346°
2026-04-28 10:31 -34.19455 150.79177 3314 ft 90 kts 347°
2026-04-28 10:31 -34.18846 150.79047 3112 ft 88 kts 354°
2026-04-28 10:31 -34.18257 150.78941 2960 ft 83 kts 354°
2026-04-28 10:31 -34.17705 150.78842 2839 ft 80 kts 353°
2026-04-28 10:32 -34.17164 150.78785 2723 ft 75 kts
2026-04-28 10:32 -34.16640 150.78785 2583 ft 75 kts
2026-04-28 10:32 -34.16129 150.78847 2443 ft 75 kts 10°
2026-04-28 10:32 -34.15616 150.78952 2321 ft 73 kts 11°
2026-04-28 10:33 -34.15121 150.79073 2186 ft 72 kts 16°
2026-04-28 10:33 -34.14630 150.79179 2085 ft 70 kts 12°
2026-04-28 10:33 -34.14134 150.79289 2008 ft 80 kts 13°
2026-04-28 10:33 -34.13551 150.79427 2036 ft 90 kts 13°
2026-04-28 10:34 -34.12927 150.79550 2071 ft 90 kts 11°
2026-04-28 10:34 -34.12299 150.79643 2080 ft 93 kts 10°
2026-04-28 10:34 -34.11631 150.79747 2012 ft 99 kts
2026-04-28 10:34 -34.10967 150.79924 2021 ft 97 kts 18°
2026-04-28 10:35 -34.10342 150.80174 2012 ft 94 kts 21°
2026-04-28 10:35 -34.09498 150.80570 1977 ft 98 kts 23°
2026-04-28 10:35 -34.09077 150.80757 1972 ft 97 kts 20°
2026-04-28 10:35 -34.08448 150.81028 1996 ft 95 kts 20°
2026-04-28 10:36 -34.07830 150.81289 2043 ft 93 kts 20°
2026-04-28 10:36 -34.07224 150.81558 2032 ft 94 kts 21°
2026-04-28 10:36 -34.06607 150.81837 2030 ft 94 kts 22°
2026-04-28 10:36 -34.05998 150.82122 2030 ft 95 kts 22°
2026-04-28 10:37 -34.05363 150.82388 2039 ft 97 kts 20°
2026-04-28 10:37 -34.04732 150.82644 2038 ft 96 kts 20°
2026-04-28 10:37 -34.04094 150.82883 2041 ft 98 kts 16°
2026-04-28 10:37 -34.03436 150.83095 2041 ft 98 kts 19°
2026-04-28 10:38 -34.02800 150.83356 2054 ft 96 kts 22°
2026-04-28 10:38 -34.02179 150.83685 2023 ft 100 kts 28°
2026-04-28 10:38 -34.01590 150.84129 2000 ft 99 kts 30°
2026-04-28 10:38 -34.00974 150.84487 2006 ft 98 kts 27°
2026-04-28 10:39 -34.00374 150.84875 1990 ft 99 kts 31°
2026-04-28 10:39 -33.99760 150.85257 1984 ft 99 kts 25°
2026-04-28 10:39 -33.99126 150.85571 2005 ft 97 kts 23°
2026-04-28 10:39 -33.98496 150.85862 2042 ft 95 kts 21°
2026-04-28 10:40 -33.97874 150.86134 2052 ft 97 kts 21°
2026-04-28 10:40 -33.97245 150.86404 2049 ft 99 kts 20°
2026-04-28 10:40 -33.96588 150.86683 2020 ft 101 kts 23°
2026-04-28 10:40 -33.95941 150.86990 2031 ft 99 kts 22°
2026-04-28 10:41 -33.95296 150.87277 2022 ft 99 kts 21°
2026-04-28 10:41 -33.94643 150.87520 2030 ft 98 kts 14°
2026-04-28 10:41 -33.93971 150.87691 2012 ft 99 kts 14°
2026-04-28 10:41 -33.93298 150.87874 2010 ft 99 kts 15°
2026-04-28 10:42 -33.92632 150.88070 2013 ft 98 kts 15°
2026-04-28 10:42 -33.91978 150.88275 2026 ft 97 kts 17°
2026-04-28 10:42 -33.91327 150.88549 1994 ft 99 kts 23°
2026-04-28 10:42 -33.90700 150.88861 2047 ft 95 kts 23°
2026-04-28 10:43 -33.90073 150.89156 2009 ft 100 kts 23°
2026-04-28 10:43 -33.89438 150.89454 2034 ft 98 kts 22°
2026-04-28 10:43 -33.88820 150.89803 2026 ft 99 kts 28°
2026-04-28 10:43 -33.88223 150.90210 2032 ft 98 kts 34°
2026-04-28 10:44 -33.87671 150.90679 2064 ft 95 kts 37°
2026-04-28 10:44 -33.87138 150.91131 2092 ft 94 kts 33°
2026-04-28 10:44 -33.86578 150.91571 2054 ft 98 kts 33°
2026-04-28 10:44 -33.86000 150.92031 2036 ft 100 kts 33°
2026-04-28 10:45 -33.85418 150.92489 2046 ft 99 kts 33°
2026-04-28 10:45 -33.84842 150.92935 2049 ft 99 kts 33°
2026-04-28 10:45 -33.84264 150.93388 2044 ft 99 kts 33°
2026-04-28 10:45 -33.83687 150.93844 2026 ft 101 kts 34°
2026-04-28 10:46 -33.83104 150.94328 2003 ft 101 kts 35°
2026-04-28 10:46 -33.82508 150.94768 2018 ft 99 kts 31°
2026-04-28 10:46 -33.81921 150.95145 2064 ft 96 kts 29°
2026-04-28 10:46 -33.81327 150.95568 2015 ft 102 kts 34°
2026-04-28 10:47 -33.80762 150.96043 2048 ft 97 kts 37°
2026-04-28 10:47 -33.80250 150.96595 2030 ft 99 kts 45°
2026-04-28 10:47 -33.79771 150.97170 2048 ft 97 kts 44°
2026-04-28 10:47 -33.79276 150.97722 2074 ft 97 kts 43°
2026-04-28 10:48 -33.78777 150.98283 2076 ft 99 kts 43°
2026-04-28 10:48 -33.78277 150.98851 2081 ft 99 kts 44°
2026-04-28 10:48 -33.77773 150.99446 2038 ft 103 kts 45°
2026-04-28 10:48 -33.77264 151.00069 1989 ft 106 kts 45°
2026-04-28 10:49 -33.76771 151.00691 1998 ft 103 kts 47°
2026-04-28 10:49 -33.76287 151.01336 1983 ft 103 kts 48°
2026-04-28 10:49 -33.75825 151.01975 1972 ft 102 kts 50°
2026-04-28 10:49 -33.75452 151.02682 1960 ft 100 kts 67°
2026-04-28 10:50 -33.75267 151.03473 2013 ft 96 kts 73°
2026-04-28 10:50 -33.75083 151.04262 1999 ft 100 kts 71°
2026-04-28 10:50 -33.74878 151.05052 2002 ft 98 kts 71°
2026-04-28 10:50 -33.74677 151.05854 1967 ft 102 kts 72°
2026-04-28 10:51 -33.74463 151.06659 1990 ft 95 kts 57°
2026-04-28 10:51 -33.73987 151.07182 2019 ft 94 kts 36°
2026-04-28 10:51 -33.73471 151.07649 2040 ft 94 kts 37°
2026-04-28 10:51 -33.72982 151.08158 2085 ft 91 kts 40°
2026-04-28 10:52 -33.72475 151.08620 2121 ft 91 kts 36°
2026-04-28 10:52 -33.71919 151.09063 2066 ft 99 kts 33°
2026-04-28 10:52 -33.71343 151.09515 2053 ft 100 kts 34°
2026-04-28 10:52 -33.70739 151.09943 1998 ft 102 kts 30°
2026-04-28 10:53 -33.70130 151.10357 1994 ft 99 kts 30°
2026-04-28 10:53 -33.69536 151.10767 1999 ft 99 kts 32°
2026-04-28 10:53 -33.69064 151.11345 1968 ft 98 kts 50°
2026-04-28 10:53 -33.68640 151.11977 1990 ft 96 kts 45°
2026-04-28 10:54 -33.68139 151.12486 2003 ft 94 kts 37°
2026-04-28 10:54 -33.67600 151.12924 2028 ft 93 kts 34°
2026-04-28 10:54 -33.67067 151.13351 2071 ft 92 kts 32°
2026-04-28 10:54 -33.66518 151.13750 2040 ft 95 kts 33°
2026-04-28 10:55 -33.65979 151.14222 2053 ft 94 kts 38°
2026-04-28 10:55 -33.65452 151.14677 2078 ft 96 kts 34°
2026-04-28 10:55 -33.64883 151.15108 2106 ft 95 kts 34°
2026-04-28 10:55 -33.64310 151.15542 2068 ft 100 kts 34°
2026-04-28 10:56 -33.63726 151.15972 2089 ft 99 kts 34°
2026-04-28 10:56 -33.63141 151.16454 2017 ft 104 kts 39°
2026-04-28 10:56 -33.62588 151.16984 2080 ft 98 kts 39°
2026-04-28 10:56 -33.62085 151.17449 2171 ft 91 kts 39°
2026-04-28 10:57 -33.61568 151.17948 2088 ft 101 kts 42°
2026-04-28 10:57 -33.61068 151.18539 2032 ft 101 kts 40°
2026-04-28 10:57 -33.60512 151.18997 2070 ft 95 kts 35°
2026-04-28 10:57 -33.59966 151.19432 2064 ft 97 kts 36°
2026-04-28 10:58 -33.59410 151.19924 2039 ft 101 kts 40°
2026-04-28 10:58 -33.58874 151.20466 2012 ft 99 kts 43°
2026-04-28 10:58 -33.58355 151.21021 1960 ft 102 kts 42°
2026-04-28 10:58 -33.57818 151.21549 1950 ft 101 kts 38°
2026-04-28 10:59 -33.57182 151.22003 1818 ft 111 kts 28°
2026-04-28 10:59 -33.56506 151.22371 1875 ft 99 kts 30°
2026-04-28 10:59 -33.55955 151.22754 2007 ft 89 kts 33°
2026-04-28 10:59 -33.55416 151.23180 1967 ft 96 kts 37°
2026-04-28 11:00 -33.54958 151.23720 2021 ft 92 kts 57°
2026-04-28 11:00 -33.54736 151.24454 2024 ft 94 kts 73°
2026-04-28 11:00 -33.54580 151.25191 2062 ft 93 kts 73°
2026-04-28 11:00 -33.54387 151.25938 2022 ft 97 kts 70°
2026-04-28 11:01 -33.54196 151.26705 2026 ft 96 kts 73°
2026-04-28 11:01 -33.54028 151.27477 2040 ft 94 kts 75°
2026-04-28 11:01 -33.53876 151.28243 2036 ft 95 kts 74°
2026-04-28 11:01 -33.53728 151.29024 2031 ft 97 kts 76°
2026-04-28 11:02 -33.53620 151.29815 2077 ft 95 kts 79°
2026-04-28 11:02 -33.53528 151.30603 2101 ft 97 kts 79°
2026-04-28 11:02 -33.53435 151.31400 2120 ft 96 kts 78°
2026-04-28 11:02 -33.53302 151.32176 2141 ft 95 kts 73°
2026-04-28 11:03 -33.53092 151.32913 2162 ft 92 kts 57°
2026-04-28 11:03 -33.52591 151.33428 2076 ft 101 kts 28°
2026-04-28 11:03 -33.51930 151.33643 2112 ft 97 kts
2026-04-28 11:03 -33.51245 151.33519 2089 ft 103 kts 342°
2026-04-28 11:04 -33.50650 151.33019 2067 ft 107 kts 323°
2026-04-28 11:04 -33.50117 151.32387 2058 ft 108 kts 317°
2026-04-28 11:04 -33.49640 151.31705 2080 ft 107 kts 315°
2026-04-28 11:04 -33.49166 151.31006 2054 ft 109 kts 313°
2026-04-28 11:05 -33.48713 151.30293 2104 ft 105 kts 312°
2026-04-28 11:05 -33.48282 151.29562 2097 ft 109 kts 309°
2026-04-28 11:05 -33.47909 151.28778 2133 ft 107 kts 301°
2026-04-28 11:05 -33.47609 151.27962 2092 ft 114 kts 285°
2026-04-28 11:06 -33.47696 151.26991 2052 ft 119 kts 251°
2026-04-28 11:06 -33.48214 151.26230 2033 ft 119 kts 212°
2026-04-28 11:06 -33.48959 151.25966 2073 ft 113 kts 176°
2026-04-28 11:06 -33.49752 151.26126 1953 ft 115 kts 171°
2026-04-28 11:07 -33.50533 151.26004 1970 ft 112 kts 192°
2026-04-28 11:07 -33.51282 151.25966 1961 ft 110 kts 161°
2026-04-28 11:07 -33.51953 151.26395 1903 ft 106 kts 136°
2026-04-28 11:07 -33.52507 151.26922 1977 ft 101 kts 140°
2026-04-28 11:08 -33.53144 151.27384 1920 ft 109 kts 145°
2026-04-28 11:08 -33.53782 151.27816 1980 ft 103 kts 143°
2026-04-28 11:08 -33.54382 151.28313 1963 ft 105 kts 139°
2026-04-28 11:08 -33.54993 151.28770 1985 ft 104 kts 142°
2026-04-28 11:09 -33.55651 151.29196 1906 ft 111 kts 153°
2026-04-28 11:09 -33.56380 151.29458 1959 ft 106 kts 160°
2026-04-28 11:09 -33.56985 151.29881 1977 ft 103 kts 129°
2026-04-28 11:09 -33.57435 151.30551 2002 ft 100 kts 129°
2026-04-28 11:10 -33.57953 151.31129 2054 ft 101 kts 128°
2026-04-28 11:10 -33.58393 151.31772 2044 ft 104 kts 119°
2026-04-28 11:10 -33.58783 151.32501 2057 ft 101 kts 116°
2026-04-28 11:10 -33.59157 151.33204 2102 ft 99 kts 117°
2026-04-28 11:11 -33.59578 151.33928 1968 ft 111 kts 118°
2026-04-28 11:11 -33.59947 151.34693 2059 ft 102 kts 110°
2026-04-28 11:11 -33.60205 151.35469 2111 ft 100 kts 99°
2026-04-28 11:11 -33.60236 151.36261 2136 ft 98 kts 77°
2026-04-28 11:12 -33.60015 151.37071 2028 ft 104 kts 65°
2026-04-28 11:12 -33.59770 151.37881 2017 ft 99 kts 69°
2026-04-28 11:12 -33.59576 151.38650 2036 ft 100 kts 70°
2026-04-28 11:12 -33.59380 151.39465 2030 ft 99 kts 73°
2026-04-28 11:13 -33.59182 151.40264 2019 ft 101 kts 66°
2026-04-28 11:13 -33.58739 151.40887 1968 ft 102 kts 31°
2026-04-28 11:13 -33.58060 151.41128 1917 ft 103 kts
2026-04-28 11:13 -33.57368 151.40972 1888 ft 104 kts 341°
2026-04-28 11:14 -33.56764 151.40465 1864 ft 105 kts 319°
2026-04-28 11:14 -33.56283 151.39838 1860 ft 105 kts 318°
2026-04-28 11:14 -33.55749 151.39206 1796 ft 107 kts 322°
2026-04-28 11:14 -33.55205 151.38661 1826 ft 101 kts 323°
2026-04-28 11:15 -33.54671 151.38056 1769 ft 105 kts 320°
2026-04-28 11:15 -33.54115 151.37535 1737 ft 105 kts 334°
2026-04-28 11:15 -33.53442 151.37146 1709 ft 103 kts 339°
2026-04-28 11:15 -33.52848 151.36765 1823 ft 97 kts 335°
2026-04-28 11:16 -33.52284 151.36305 1825 ft 100 kts 321°
2026-04-28 11:16 -33.52054 151.35841 1916 ft 97 kts 292°
2026-04-28 11:16 -33.52038 151.35006 1919 ft 108 kts 261°
2026-04-28 11:16 -33.52576 151.33991 1974 ft 110 kts 219°
2026-04-28 11:17 -33.53276 151.33680 1976 ft 112 kts 179°
2026-04-28 11:17 -33.54005 151.33961 1888 ft 109 kts 131°
2026-04-28 11:17 -33.54255 151.34453 1870 ft 105 kts 99°
2026-04-28 11:17 -33.54208 151.35282 1898 ft 96 kts 69°
2026-04-28 11:18 -33.53894 151.36020 1809 ft 99 kts 58°
2026-04-28 11:18 -33.53407 151.36527 1781 ft 101 kts 22°
2026-04-28 11:18 -33.52703 151.36664 1780 ft 98 kts
2026-04-28 11:18 -33.52072 151.36372 1719 ft 110 kts 324°
2026-04-28 11:19 -33.51762 151.35553 1862 ft 109 kts 270°
2026-04-28 11:19 -33.52179 151.34809 1834 ft 118 kts 207°
2026-04-28 11:19 -33.53042 151.34652 1640 ft 127 kts 175°
2026-04-28 11:19 -33.53857 151.34709 1785 ft 111 kts 175°
2026-04-28 11:20 -33.54604 151.34731 1899 ft 104 kts 173°
2026-04-28 11:20 -33.55383 151.34829 1733 ft 117 kts 169°
2026-04-28 11:20 -33.56166 151.34941 1787 ft 110 kts 169°
2026-04-28 11:20 -33.56927 151.35037 1803 ft 108 kts 171°
2026-04-28 11:21 -33.57687 151.35134 1804 ft 110 kts 172°
2026-04-28 11:21 -33.58458 151.35215 1859 ft 108 kts 170°
2026-04-28 11:21 -33.59188 151.35311 1918 ft 108 kts 170°
2026-04-28 11:21 -33.59945 151.35410 1932 ft 110 kts 170°
2026-04-28 11:22 -33.60701 151.35415 1999 ft 108 kts 183°
2026-04-28 11:22 -33.61460 151.35256 2021 ft 111 kts 188°
2026-04-28 11:22 -33.62217 151.35112 2049 ft 109 kts 186°
2026-04-28 11:22 -33.62971 151.35001 2033 ft 111 kts 180°
2026-04-28 11:23 -33.63737 151.34906 2093 ft 108 kts 186°
2026-04-28 11:23 -33.64474 151.34844 2114 ft 110 kts 173°
2026-04-28 11:23 -33.65214 151.35049 2171 ft 104 kts 150°
2026-04-28 11:23 -33.65886 151.35348 2185 ft 108 kts 172°
2026-04-28 11:24 -33.66592 151.34977 1994 ft 125 kts 238°
2026-04-28 11:24 -33.66788 151.33998 2093 ft 105 kts 265°
2026-04-28 11:24 -33.66982 151.33145 2104 ft 108 kts 242°
2026-04-28 11:24 -33.67589 151.32657 2042 ft 109 kts 184°
2026-04-28 11:25 -33.68332 151.32685 2028 ft 107 kts 170°
2026-04-28 11:25 -33.69081 151.32766 2042 ft 108 kts 170°
2026-04-28 11:25 -33.69834 151.32831 2037 ft 111 kts 176°
2026-04-28 11:25 -33.70604 151.32825 2072 ft 109 kts 174°
2026-04-28 11:26 -33.71361 151.32879 2091 ft 110 kts 171°
2026-04-28 11:26 -33.72102 151.32985 2002 ft 106 kts 173°
2026-04-28 11:26 -33.72847 151.32960 1759 ft 107 kts 182°
2026-04-28 11:26 -33.73589 151.32863 1527 ft 107 kts 185°
2026-04-28 11:27 -33.74331 151.32739 1293 ft 107 kts 186°
2026-04-28 11:27 -33.75056 151.32565 1045 ft 107 kts 194°
2026-04-28 11:27 -33.75762 151.32366 904 ft 101 kts 189°
2026-04-28 11:27 -33.76446 151.32237 739 ft 99 kts 188°
2026-04-28 11:28 -33.77130 151.32096 525 ft 102 kts 189°
2026-04-28 11:28 -33.77850 151.31916 538 ft 108 kts 191°
2026-04-28 11:28 -33.78599 151.31700 527 ft 113 kts 193°
2026-04-28 11:28 -33.79362 151.31463 523 ft 114 kts 194°
2026-04-28 11:29 -33.80125 151.31231 525 ft 112 kts 193°
2026-04-28 11:29 -33.80881 151.31013 523 ft 112 kts 194°
2026-04-28 11:29 -33.81653 151.30807 508 ft 114 kts 191°
2026-04-28 11:29 -33.82425 151.30602 494 ft 114 kts 192°
2026-04-28 11:30 -33.83199 151.30399 496 ft 113 kts 191°
2026-04-28 11:30 -33.84717 151.29923 485 ft 116 kts 194°
2026-04-28 11:30 -33.85497 151.29662 476 ft 116 kts 196°
2026-04-28 11:31 -33.86255 151.29494 532 ft 108 kts 185°
2026-04-28 11:31 -33.87006 151.29382 527 ft 111 kts 186°
2026-04-28 11:31 -33.87773 151.29274 527 ft 111 kts 186°
2026-04-28 11:31 -33.88536 151.29120 524 ft 112 kts 189°
2026-04-28 11:32 -33.89308 151.28931 529 ft 113 kts 191°
2026-04-28 11:32 -33.90077 151.28711 529 ft 113 kts 191°
2026-04-28 11:32 -33.90855 151.28557 531 ft 115 kts 188°
2026-04-28 11:32 -33.91621 151.28376 537 ft 112 kts 189°
2026-04-28 11:33 -33.92402 151.28203 508 ft 115 kts 191°
2026-04-28 11:33 -33.93172 151.28017 508 ft 112 kts 189°
2026-04-28 11:33 -33.93939 151.27866 468 ft 115 kts 187°
2026-04-28 11:33 -33.94723 151.27702 473 ft 113 kts 191°
2026-04-28 11:34 -33.95489 151.27501 506 ft 111 kts 192°
2026-04-28 11:34 -33.96256 151.27295 527 ft 113 kts 191°
2026-04-28 11:34 -33.97045 151.27097 499 ft 117 kts 191°
2026-04-28 11:34 -33.97820 151.26805 502 ft 117 kts 200°
2026-04-28 11:35 -33.98577 151.26421 481 ft 120 kts 202°
2026-04-28 11:35 -33.99346 151.25993 434 ft 121 kts 206°
2026-04-28 11:35 -34.00100 151.25575 432 ft 116 kts 204°
2026-04-28 11:35 -34.00812 151.25168 459 ft 113 kts 204°
2026-04-28 11:36 -34.01507 151.24735 498 ft 112 kts 210°
2026-04-28 11:36 -34.02188 151.24255 488 ft 114 kts 213°
2026-04-28 11:36 -34.02858 151.23752 506 ft 113 kts 213°
2026-04-28 11:36 -34.03534 151.23244 499 ft 116 kts 214°
2026-04-28 11:37 -34.04217 151.22712 475 ft 117 kts 215°
2026-04-28 11:37 -34.04895 151.22183 474 ft 115 kts 214°
2026-04-28 11:37 -34.05568 151.21684 487 ft 111 kts 212°
2026-04-28 11:37 -34.06232 151.21190 485 ft 113 kts 212°
2026-04-28 11:38 -34.06886 151.20642 463 ft 115 kts 216°
2026-04-28 11:38 -34.07541 151.20097 464 ft 112 kts 216°
2026-04-28 11:38 -34.08141 151.19525 501 ft 111 kts 219°
2026-04-28 11:38 -34.08748 151.18922 525 ft 112 kts 219°
2026-04-28 11:39 -34.09360 151.18321 557 ft 112 kts 221°
2026-04-28 11:39 -34.09968 151.17732 593 ft 110 kts 221°
2026-04-28 11:39 -34.10593 151.17150 566 ft 114 kts 219°
2026-04-28 11:39 -34.11217 151.16549 566 ft 117 kts 219°
2026-04-28 11:40 -34.11870 151.15956 570 ft 116 kts 218°
2026-04-28 11:40 -34.12483 151.15360 547 ft 115 kts 222°
2026-04-28 11:40 -34.13102 151.14745 513 ft 118 kts 219°
2026-04-28 11:40 -34.13527 151.14323 477 ft 119 kts 223°
2026-04-28 11:41 -34.15098 151.12268 529 ft 109 kts 230°
2026-04-28 11:41 -34.15721 151.11289 556 ft 111 kts 238°
2026-04-28 11:42 -34.16168 151.10507 546 ft 115 kts 241°
2026-04-28 11:42 -34.16606 151.09711 740 ft 110 kts 239°
2026-04-28 11:42 -34.17010 151.08961 1032 ft 106 kts 241°
2026-04-28 11:42 -34.17446 151.08203 1179 ft 111 kts 236°
2026-04-28 11:43 -34.17926 151.07534 1477 ft 105 kts 225°
2026-04-28 11:43 -34.18517 151.06883 1503 ft 122 kts 226°
2026-04-28 11:43 -34.19129 151.06125 1533 ft 127 kts 230°
2026-04-28 11:43 -34.19697 151.05359 1551 ft 117 kts 231°
2026-04-28 11:44 -34.20291 151.04675 1481 ft 119 kts 220°
2026-04-28 11:44 -34.20965 151.04110 1470 ft 115 kts 217°
2026-04-28 11:44 -34.21589 151.03533 1472 ft 111 kts 220°
2026-04-28 11:44 -34.22187 151.02971 1532 ft 107 kts 220°
2026-04-28 11:45 -34.22763 151.02403 1531 ft 108 kts 221°
2026-04-28 11:45 -34.23364 151.01847 1506 ft 108 kts 219°
2026-04-28 11:45 -34.23966 151.01277 1472 ft 110 kts 221°
2026-04-28 11:45 -34.24536 151.00668 1454 ft 110 kts 224°
2026-04-28 11:46 -34.25079 151.00053 1506 ft 106 kts 225°
2026-04-28 11:46 -34.25637 150.99459 1544 ft 107 kts 222°
2026-04-28 11:46 -34.26251 150.98955 1573 ft 109 kts 208°
2026-04-28 11:46 -34.26938 150.98550 1621 ft 109 kts 206°
2026-04-28 11:47 -34.27643 150.98171 1827 ft 108 kts 204°
2026-04-28 11:47 -34.28334 150.97832 2058 ft 108 kts 204°
2026-04-28 11:47 -34.29013 150.97443 2281 ft 107 kts 207°
2026-04-28 11:47 -34.29678 150.97035 2513 ft 107 kts 208°
2026-04-28 11:48 -34.30391 150.96631 2543 ft 115 kts 206°
2026-04-28 11:48 -34.31111 150.96240 2554 ft 113 kts 205°
2026-04-28 11:48 -34.31834 150.95883 2540 ft 113 kts 201°
2026-04-28 11:48 -34.32574 150.95544 2532 ft 114 kts 202°
2026-04-28 11:49 -34.33307 150.95190 2518 ft 114 kts 207°
2026-04-28 11:49 -34.33997 150.94721 2491 ft 115 kts 213°
2026-04-28 11:49 -34.34671 150.94208 2490 ft 114 kts 215°
2026-04-28 11:49 -34.35350 150.93690 2459 ft 115 kts 214°
2026-04-28 11:50 -34.36028 150.93184 2432 ft 115 kts 213°
2026-04-28 11:50 -34.36717 150.92696 2419 ft 114 kts 211°
2026-04-28 11:50 -34.37417 150.92236 2391 ft 114 kts 210°
2026-04-28 11:50 -34.38134 150.91795 2367 ft 115 kts 209°
2026-04-28 11:51 -34.38847 150.91370 2358 ft 115 kts 207°
2026-04-28 11:51 -34.39546 150.90953 2384 ft 110 kts 208°
2026-04-28 11:51 -34.40228 150.90530 2430 ft 109 kts 211°
2026-04-28 11:51 -34.40920 150.90067 2403 ft 115 kts 210°
2026-04-28 11:52 -34.41595 150.89607 2526 ft 108 kts 212°
2026-04-28 11:52 -34.42256 150.89149 2566 ft 112 kts 210°
2026-04-28 11:52 -34.42964 150.88730 2577 ft 114 kts 207°
2026-04-28 11:52 -34.43685 150.88323 2586 ft 116 kts 207°
2026-04-28 11:53 -34.44418 150.87856 2539 ft 121 kts 210°
2026-04-28 11:53 -34.45148 150.87357 2546 ft 120 kts 211°
2026-04-28 11:53 -34.45867 150.86841 2533 ft 120 kts 213°
2026-04-28 11:53 -34.46588 150.86317 2516 ft 122 kts 212°
2026-04-28 11:54 -34.47328 150.85829 2516 ft 120 kts 208°
2026-04-28 11:54 -34.48069 150.85394 2478 ft 121 kts 208°
2026-04-28 11:54 -34.48816 150.84949 2415 ft 118 kts 207°
2026-04-28 11:54 -34.49552 150.84500 2286 ft 119 kts 210°
2026-04-28 11:55 -34.50279 150.84011 2168 ft 120 kts 213°
2026-04-28 11:55 -34.51014 150.83521 2051 ft 121 kts 211°
2026-04-28 11:55 -34.51745 150.83018 1903 ft 121 kts 213°
2026-04-28 11:55 -34.52450 150.82484 1718 ft 115 kts 216°
2026-04-28 11:56 -34.53110 150.81964 1453 ft 111 kts 217°
2026-04-28 11:56 -34.53722 150.81471 1319 ft 100 kts 217°
2026-04-28 11:56 -34.54296 150.81026 1148 ft 97 kts 214°
2026-04-28 11:56 -34.54899 150.80733 1025 ft 96 kts 185°
2026-04-28 11:57 -34.55598 150.80866 1007 ft 109 kts 164°
2026-04-28 11:57 -34.56361 150.81093 969 ft 114 kts 163°
2026-04-28 11:57 -34.57113 150.81349 972 ft 101 kts 162°
2026-04-28 11:57 -34.57721 150.81237 896 ft 86 kts 220°
2026-04-28 11:58 -34.57973 150.80663 782 ft 76 kts 269°
2026-04-28 11:58 -34.58016 150.80019 650 ft 75 kts 276°
2026-04-28 11:58 -34.57986 150.79412 559 ft 68 kts 296°
2026-04-28 11:58 -34.57658 150.79091 387 ft 62 kts 353°
2026-04-28 11:59 -34.57212 150.79006 238 ft 65 kts 348°
2026-04-28 11:59 -34.56764 150.78904 87 ft 65 kts 348°
2026-04-28 11:59 -34.56363 150.78815 32 ft 50 kts 347°
2026-04-28 11:59 -34.56080 150.78749 31 ft 35 kts 349°
2026-04-28 12:00 -34.55876 150.78703 28 ft 22 kts 355°
2026-04-28 12:00 -34.55862 150.78736 29 ft 9 kts 78°
2026-04-28 12:00 -34.55853 150.78817 30 ft 8 kts 81°
2026-04-28 12:00 -34.55851 150.78871 30 ft 6 kts 132°
2026-04-28 12:01 -34.55864 150.78883 30 ft 0 kts 85°